Content
SEND FEEDBACK

Daily
Averages
Monthly
Summary
Germany

DRESDEN, GERMANY


Home > Europe > Germany
Elevation: 843 feet     Latitude: 51 07N     Longitude: 013 41E

WEATHER
 
SELECT A DAY
Number of Records: 317,097;   Date Range: 7/3/96 - 7/23/14
 
SHARE

PRINT THIS DATA

[ ← Previous Day ]
WEATHER ALMANAC - JANUARY 31, 2013
[ Next Day → ]
[ °C ]   °F
Weather ElementAverageHighLow
Temperature42.9 °F46.4 °F (1:20 pm)33.8 °F (9:20 pm)
Dewpoint33 °F37.4 °F (12:20 am)30 °F (2:00 pm)
Humidity65.8 %93 % (9:20 pm)40 % (2:00 pm)
Barometer29.78 in29.89 in (9:00 am)29.65 in (8:20 pm)
Wind Speed17.8 mph24.6 mph (9:00 am)
Wind Gust43.7 mph (11:20 am)
Weather ElementAverage
Visibility12.4 mi
Wind DirectionWSW (254.2 °)

Weather ElementTotal
Precipitation---
Heating Degree Days24.9 (Base 65)
Averaged from 67 records on January 31, 2013
WEATHER CONDITIONS BREAKOUT
WIND DIRECTION BREAKOUT
WEATHER BY HOUR - JANUARY 31, 2013
[ °C ]   °F
Local TimeTemperatureDewpointHumidityBarometerVisibilityWind DirectionWind SpeedGust SpeedPrecipitationEventsConditions
12:20 AM44.6 °F37.4 °F76 %29.77 in6.2 miWSW (250°)13.8 mph26.5 mphPartly Cloudy
12:50 AM44.6 °F35.6 °F71 %29.77 in6.2 miWSW (250°)16.1 mph28.8 mphPartly Cloudy
1:00 AM44.0 °F35.0 °F61 %29.80 in25.0 miWest (260°)17.9 mphPartly Cloudy
1:20 AM42.8 °F35.6 °F76 %29.77 inWSW (250°)13.8 mph26.5 mphClear
1:50 AM42.8 °F33.8 °F70 %29.77 inWSW (250°)13.8 mphClear
2:00 AM43.0 °F33.0 °F59 %29.81 in28.0 miWSW (250°)17.9 mph
2:20 AM42.8 °F33.8 °F70 %29.80 inWSW (250°)16.1 mph27.6 mphClear
2:50 AM42.8 °F33.8 °F70 %29.80 in6.2 miWest (260°)17.3 mphMostly Cloudy
3:00 AM44.0 °F33.0 °F54 %29.83 in22.0 miWest (260°)22.4 mphMostly Cloudy
3:20 AM44.6 °F33.8 °F66 %29.80 in6.2 miWest (260°)18.4 mph32.2 mphMostly Cloudy
3:50 AM42.8 °F33.8 °F70 %29.80 in6.2 miWest (260°)17.3 mph32.2 mphMostly Cloudy
4:20 AM42.8 °F33.8 °F70 %29.80 in6.2 miWest (260°)17.3 mph29.9 mphScattered Clouds
4:50 AM42.8 °F33.8 °F70 %29.83 in6.2 miWest (260°)17.3 mph28.8 mphMostly Cloudy
5:00 AM43.0 °F33.0 °F57 %29.86 in28.0 miWest (260°)22.4 mphMostly Cloudy
5:20 AM42.8 °F33.8 °F70 %29.83 in6.2 miWest (260°)16.1 mph28.8 mphMostly Cloudy
5:50 AM42.8 °F33.8 °F70 %29.83 in6.2 miWSW (250°)17.3 mphPartly Cloudy
6:00 AM42.0 °F33.0 °F59 %29.87 in28.0 miWest (260°)22.4 mphScattered Clouds
6:20 AM42.8 °F33.8 °F70 %29.83 in6.2 miWSW (250°)17.3 mph29.9 mphPartly Cloudy
6:50 AM41.0 °F32.0 °F70 %29.83 in6.2 miWest (260°)17.3 mph29.9 mphScattered Clouds
7:00 AM42.0 °F32.0 °F56 %29.87 in28.0 miWest (260°)22.4 mphPartly Cloudy
7:20 AM41.0 °F32.0 °F70 %29.86 in6.2 miWest (260°)15.0 mphPartly Cloudy
7:50 AM42.8 °F32.0 °F66 %29.83 in6.2 miWSW (250°)16.1 mph29.9 mphPartly Cloudy
8:00 AM42.0 °F32.0 °F56 %29.88 in22.0 miWest (260°)22.4 mphScattered Clouds
8:20 AM42.8 °F32.0 °F66 %29.83 in6.2 miWest (260°)15.0 mph29.9 mphMostly Cloudy
8:50 AM42.8 °F32.0 °F66 %29.83 in6.2 miWest (260°)19.6 mph33.4 mphMostly Cloudy
9:00 AM43.0 °F31.0 °F52 %29.89 in22.0 miWest (270°)24.6 mphMostly Cloudy
9:20 AM42.8 °F32.0 °F66 %29.86 in6.2 miWest (260°)19.6 mph35.7 mphMostly Cloudy
9:50 AM44.6 °F32.0 °F61 %29.86 in6.2 miWest (260°)18.4 mph32.2 mphScattered Clouds
10:20 AM44.6 °F32.0 °F61 %29.83 in6.2 miWest (260°)18.4 mph34.5 mphMostly Cloudy
10:50 AM44.6 °F32.0 °F61 %29.86 in6.2 miWest (270°)18.4 mph33.4 mphMostly Cloudy
11:00 AM45.0 °F31.0 °F47 %29.88 in25.0 miWest (260°)22.4 mphScattered Clouds
11:20 AM44.6 °F32.0 °F61 %29.83 in6.2 miWest (260°)20.7 mph43.7 mphMostly Cloudy
11:50 AM44.6 °F32.0 °F61 %29.83 in6.2 miWest (260°)16.1 mphMostly Cloudy
12:00 PM45.0 °F31.0 °F45 %29.87 in25.0 miWest (260°)24.6 mphScattered Clouds
12:20 PM44.6 °F32.0 °F61 %29.80 inWSW (250°)18.4 mphClear
12:50 PM44.6 °F33.8 °F66 %29.77 inWSW (240°)18.4 mph31.1 mphClear
1:00 PM45.0 °F32.0 °F48 %29.82 in25.0 miWSW (240°)22.4 mphMostly Cloudy
1:20 PM46.4 °F30.2 °F53 %29.77 inWSW (240°)19.6 mphClear
1:50 PM46.4 °F30.2 °F53 %29.77 inWSW (250°)13.8 mph26.5 mphClear
2:00 PM46.0 °F30.0 °F40 %29.81 in28.0 miWSW (250°)17.9 mphMostly Cloudy
2:20 PM46.4 °F30.2 °F53 %29.77 inWSW (240°)16.1 mphClear
2:50 PM46.4 °F30.2 °F53 %29.74 inWSW (240°)19.6 mph34.5 mphClear
3:00 PM46.0 °F30.0 °F41 %29.78 in28.0 miWSW (240°)22.4 mphMostly Cloudy
3:20 PM44.6 °F32.0 °F61 %29.71 inWSW (240°)16.1 mphClear
3:50 PM44.6 °F30.2 °F57 %29.71 inWSW (240°)18.4 mph35.7 mphClear
4:20 PM44.6 °F33.8 °F66 %29.71 in6.2 miWest (260°)23.0 mph36.8 mphRainLight Rain
4:50 PM41.0 °F35.6 °F81 %29.71 in6.2 miWSW (250°)15.0 mph28.8 mphRainLight Rain
5:00 PM41.0 °F35.0 °F73 %29.75 in7.0 miWSW (250°)20.1 mphRainLight Rain
5:20 PM41.0 °F37.4 °F87 %29.68 in6.2 miWSW (240°)15.0 mphRainLight Rain
5:50 PM42.8 °F35.6 °F76 %29.68 in6.2 miWSW (240°)17.3 mphRainLight Rain
6:00 PM42.0 °F35.0 °F69 %29.72 in16.0 miWSW (250°)20.1 mphRainLight Rain
6:20 PM42.8 °F35.6 °F76 %29.68 in6.2 miWSW (250°)17.3 mphMostly Cloudy
6:50 PM44.6 °F33.8 °F66 %29.68 in6.2 miWest (260°)18.4 mph32.2 mphScattered Clouds
7:00 PM44.0 °F33.0 °F56 %29.71 in19.0 miWest (260°)22.4 mphRainLight Rain
7:20 PM42.8 °F33.8 °F70 %29.68 inWest (260°)17.3 mph31.1 mphClear
7:50 PM42.8 °F33.8 °F70 %29.68 inWSW (250°)17.3 mph28.8 mphClear
8:00 PM43.0 °F33.0 °F58 %29.71 in28.0 miWSW (250°)20.1 mphMostly Cloudy
8:20 PM42.8 °F33.8 °F70 %29.65 in6.2 miWSW (250°)17.3 mph29.9 mphMostly Cloudy
8:50 PM42.8 °F33.8 °F70 %29.65 in6.2 miWSW (250°)18.4 mph32.2 mphMostly Cloudy
9:00 PM43.0 °F33.0 °F58 %29.70 in22.0 miWest (260°)20.1 mphMostly Cloudy
9:20 PM33.8 °F32.0 °F93 %29.74 in2.8 miWNW (300°)16.1 mph32.2 mphRain-SnowRain Showers
9:50 PM35.6 °F33.8 °F93 %29.71 in6.2 miWSW (240°)10.4 mphMostly Cloudy
10:20 PM37.4 °F33.8 °F87 %29.71 in6.2 miWest (260°)11.5 mphMostly Cloudy
10:50 PM37.4 °F33.8 °F87 %29.71 in6.2 miWSW (250°)10.4 mphMostly Cloudy
11:00 PM37.0 °F33.0 °F82 %29.77 in28.0 miWest (260°)13.4 mphMostly Cloudy
11:20 PM39.2 °F33.8 °F81 %29.71 in6.2 miWSW (250°)12.7 mphScattered Clouds
11:50 PM39.2 °F33.8 °F81 %29.71 in6.2 miWSW (250°)12.7 mphScattered Clouds
Hourly data recorded from EDDC, located miles away from Dresden, Germany







STORIES FROM OUR PARTNERS